GTI7970 ZUCK-ZHCC

Flight info

Callsign GTI7970
Flight time 1h 29m
Altitude 35100
Route OVNUL1Z OVNUL W677 IGIRO W4 TAMIX B208 NOPIN NOP9V
Aircraft B77L/H-SDE1E2E3FGHIJ2J3J4J5M1RWXY/LB1D1

Departure

Time 2026-04-30 00:09
Airport Chongqing Jiangbei International Airport (ZUCK)

Arrival

Time 2026-04-30 01:38
Airport Zhengzhou Xinzheng International Airport (ZHCC)
Time Latitude Longitude Altitude Speed Heading
2026-04-29 23:39 29.73950 106.65898 1345 ft 0 kts 286°
2026-04-29 23:56 29.73944 106.65923 1345 ft 4 kts 278°
2026-04-29 23:57 29.73942 106.65954 1346 ft 4 kts 264°
2026-04-29 23:57 29.73949 106.65983 1342 ft 4 kts 236°
2026-04-29 23:57 29.73965 106.65999 1347 ft 2 kts 196°
2026-04-29 23:57 29.73970 106.66001 1344 ft 1 kts 196°
2026-04-30 00:00 29.73964 106.65999 1346 ft 5 kts 196°
2026-04-30 00:00 29.73887 106.65973 1346 ft 13 kts 197°
2026-04-30 00:00 29.73815 106.65949 1347 ft 9 kts 193°
2026-04-30 00:00 29.73768 106.65989 1346 ft 10 kts 110°
2026-04-30 00:01 29.73743 106.66076 1343 ft 12 kts 107°
2026-04-30 00:01 29.73716 106.66179 1337 ft 14 kts 107°
2026-04-30 00:01 29.73685 106.66296 1334 ft 16 kts 107°
2026-04-30 00:01 29.73652 106.66423 1331 ft 17 kts 107°
2026-04-30 00:02 29.73616 106.66559 1328 ft 17 kts 107°
2026-04-30 00:02 29.73593 106.66644 1327 ft 8 kts 114°
2026-04-30 00:02 29.73541 106.66665 1326 ft 8 kts 188°
2026-04-30 00:02 29.73484 106.66647 1327 ft 8 kts 197°
2026-04-30 00:03 29.73425 106.66627 1327 ft 12 kts 197°
2026-04-30 00:03 29.73314 106.66588 1328 ft 18 kts 196°
2026-04-30 00:03 29.73197 106.66548 1330 ft 18 kts 196°
2026-04-30 00:03 29.73079 106.66509 1331 ft 18 kts 196°
2026-04-30 00:04 29.72960 106.66468 1332 ft 18 kts 197°
2026-04-30 00:04 29.72842 106.66428 1333 ft 18 kts 196°
2026-04-30 00:04 29.72724 106.66389 1334 ft 18 kts 196°
2026-04-30 00:04 29.72605 106.66348 1335 ft 18 kts 197°
2026-04-30 00:05 29.72487 106.66306 1335 ft 18 kts 197°
2026-04-30 00:05 29.72370 106.66264 1336 ft 18 kts 197°
2026-04-30 00:05 29.72291 106.66237 1340 ft 18 kts 197°
2026-04-30 00:05 29.72135 106.66182 1338 ft 18 kts 197°
2026-04-30 00:06 29.72024 106.66142 1344 ft 16 kts 198°
2026-04-30 00:06 29.71916 106.66103 1344 ft 16 kts 197°
2026-04-30 00:06 29.71807 106.66064 1345 ft 16 kts 197°
2026-04-30 00:06 29.71699 106.66025 1345 ft 16 kts 197°
2026-04-30 00:07 29.71626 106.66000 1345 ft 16 kts 196°
2026-04-30 00:07 29.71536 106.65970 1345 ft 9 kts 197°
2026-04-30 00:07 29.71489 106.66001 1346 ft 9 kts 112°
2026-04-30 00:07 29.71463 106.66092 1345 ft 9 kts 103°
2026-04-30 00:08 29.71493 106.66159 1343 ft 13 kts 30°
2026-04-30 00:08 29.71712 106.66237 1343 ft 65 kts 17°
2026-04-30 00:08 29.72378 106.66468 1334 ft 132 kts 17°
2026-04-30 00:08 29.73423 106.66830 1422 ft 170 kts 17°
2026-04-30 00:09 29.74162 106.67083 1849 ft 167 kts 16°
2026-04-30 00:09 29.75310 106.67466 2380 ft 177 kts 18°
2026-04-30 00:09 29.76541 106.67888 2795 ft 194 kts 19°
2026-04-30 00:09 29.77811 106.68573 3051 ft 212 kts 38°
2026-04-30 00:10 29.79509 106.69944 3557 ft 237 kts 36°
2026-04-30 00:10 29.80935 106.71008 4148 ft 251 kts 34°
2026-04-30 00:10 29.82448 106.72115 4760 ft 262 kts 34°
2026-04-30 00:10 29.83483 106.72864 5166 ft 270 kts 33°
2026-04-30 00:11 29.85103 106.74026 5856 ft 278 kts 33°
2026-04-30 00:11 29.86752 106.75214 6691 ft 281 kts 33°
2026-04-30 00:11 29.88413 106.76418 7523 ft 283 kts 33°
2026-04-30 00:11 29.90094 106.77643 8316 ft 288 kts 32°
2026-04-30 00:12 29.91797 106.78885 9111 ft 291 kts 32°
2026-04-30 00:12 29.93516 106.80140 9930 ft 294 kts 31°
2026-04-30 00:12 29.95260 106.81409 10581 ft 302 kts 31°
2026-04-30 00:12 29.97102 106.82751 10812 ft 326 kts 31°
2026-04-30 00:13 29.99086 106.84197 11003 ft 350 kts 31°
2026-04-30 00:13 30.01164 106.85713 11222 ft 371 kts 31°
2026-04-30 00:13 30.03377 106.87331 11790 ft 382 kts 31°
2026-04-30 00:13 30.05644 106.88974 12485 ft 387 kts 30°
2026-04-30 00:14 30.07945 106.90613 13295 ft 390 kts 30°
2026-04-30 00:14 30.10227 106.92235 14086 ft 392 kts 30°
2026-04-30 00:14 30.12559 106.93897 14770 ft 396 kts 30°
2026-04-30 00:14 30.14912 106.95569 15438 ft 395 kts 28°
2026-04-30 00:15 30.17446 106.96814 15902 ft 398 kts
2026-04-30 00:15 30.20175 106.97224 16390 ft 398 kts
2026-04-30 00:15 30.22908 106.97589 17008 ft 402 kts
2026-04-30 00:15 30.25688 106.98004 17756 ft 403 kts
2026-04-30 00:16 30.28472 106.98444 18491 ft 405 kts
2026-04-30 00:16 30.31277 106.98900 19038 ft 409 kts
2026-04-30 00:16 30.34109 106.99364 19576 ft 413 kts
2026-04-30 00:16 30.36970 106.99834 20096 ft 417 kts
2026-04-30 00:17 30.39858 107.00308 20653 ft 421 kts
2026-04-30 00:17 30.42766 107.00787 21243 ft 423 kts
2026-04-30 00:17 30.45693 107.01270 21790 ft 427 kts
2026-04-30 00:17 30.48605 107.01749 22303 ft 430 kts
2026-04-30 00:18 30.51579 107.02237 22759 ft 434 kts
2026-04-30 00:18 30.54577 107.02738 23210 ft 436 kts
2026-04-30 00:18 30.57543 107.03720 23535 ft 455 kts 20°
2026-04-30 00:18 30.60232 107.05748 23906 ft 464 kts 31°
2026-04-30 00:19 30.62816 107.08043 24143 ft 471 kts 31°
2026-04-30 00:19 30.65464 107.10309 24555 ft 474 kts 30°
2026-04-30 00:19 30.68132 107.12549 25120 ft 473 kts 30°
2026-04-30 00:19 30.70772 107.14749 25599 ft 475 kts 29°
2026-04-30 00:20 30.73469 107.16990 25990 ft 479 kts 29°
2026-04-30 00:20 30.76194 107.19257 26384 ft 484 kts 29°
2026-04-30 00:20 30.78940 107.21547 26796 ft 488 kts 29°
2026-04-30 00:20 30.81706 107.23858 27223 ft 491 kts 29°
2026-04-30 00:21 30.84485 107.26185 27669 ft 494 kts 29°
2026-04-30 00:21 30.87284 107.28531 28109 ft 497 kts 29°
2026-04-30 00:21 30.90065 107.30863 28564 ft 501 kts 29°
2026-04-30 00:21 30.92895 107.33239 29034 ft 503 kts 29°
2026-04-30 00:22 30.95740 107.35629 29456 ft 506 kts 29°
2026-04-30 00:22 30.98605 107.38037 29839 ft 510 kts 29°
2026-04-30 00:22 31.01489 107.40462 30212 ft 513 kts 28°
2026-04-30 00:22 31.04398 107.42872 30652 ft 511 kts 26°
2026-04-30 00:23 31.07398 107.44999 31232 ft 500 kts 21°
2026-04-30 00:23 31.10431 107.46942 31872 ft 494 kts 20°
2026-04-30 00:23 31.13440 107.48848 32493 ft 490 kts 20°
2026-04-30 00:23 31.16386 107.50720 33045 ft 488 kts 20°
2026-04-30 00:24 31.19356 107.52624 33505 ft 487 kts 20°
2026-04-30 00:24 31.22318 107.54538 33953 ft 486 kts 20°
2026-04-30 00:24 31.25270 107.56457 34373 ft 485 kts 20°
2026-04-30 00:24 31.28212 107.58374 34759 ft 483 kts 19°
2026-04-30 00:25 31.31140 107.60280 35181 ft 481 kts 19°
2026-04-30 00:25 31.37024 107.64101 35241 ft 484 kts 19°
2026-04-30 00:26 31.42833 107.67881 35253 ft 478 kts 19°
2026-04-30 00:26 31.48631 107.71655 35246 ft 476 kts 19°
2026-04-30 00:27 31.54414 107.75423 35266 ft 476 kts 19°
2026-04-30 00:27 31.60210 107.79208 35243 ft 477 kts 19°
2026-04-30 00:28 31.65771 107.83514 35255 ft 491 kts 30°
2026-04-30 00:28 31.71025 107.88662 35253 ft 493 kts 31°
2026-04-30 00:29 31.76285 107.93838 35263 ft 494 kts 30°
2026-04-30 00:29 31.81583 107.98996 35260 ft 495 kts 30°
2026-04-30 00:30 31.86859 108.04117 35279 ft 495 kts 30°
2026-04-30 00:30 31.92155 108.09269 35264 ft 493 kts 30°
2026-04-30 00:31 31.97417 108.14402 35247 ft 490 kts 30°
2026-04-30 00:31 32.02650 108.19506 35274 ft 487 kts 30°
2026-04-30 00:32 32.07726 108.24854 35257 ft 499 kts 41°
2026-04-30 00:32 32.09781 108.28135 35267 ft 511 kts 50°
2026-04-30 00:32 32.11452 108.31877 35258 ft 522 kts 60°
2026-04-30 00:33 32.13783 108.40041 35267 ft 526 kts 65°
2026-04-30 00:33 32.16024 108.48256 35271 ft 525 kts 64°
2026-04-30 00:34 32.18367 108.56417 35260 ft 525 kts 64°
2026-04-30 00:34 32.20758 108.64500 35245 ft 520 kts 58°
2026-04-30 00:34 32.22489 108.68162 35251 ft 503 kts 45°
2026-04-30 00:35 32.24719 108.71270 35251 ft 490 kts 35°
2026-04-30 00:35 32.27276 108.73848 35290 ft 477 kts 25°
2026-04-30 00:35 32.30070 108.75859 35249 ft 469 kts 21°
2026-04-30 00:36 32.35698 108.79749 35260 ft 470 kts 21°
2026-04-30 00:36 32.41290 108.83698 35257 ft 473 kts 22°
2026-04-30 00:37 32.46921 108.87734 35243 ft 473 kts 22°
2026-04-30 00:37 32.52541 108.91786 35241 ft 472 kts 22°
2026-04-30 00:38 32.58144 108.95826 35236 ft 471 kts 22°
2026-04-30 00:38 32.63692 108.99831 35240 ft 469 kts 22°
2026-04-30 00:39 32.69263 109.03856 35240 ft 469 kts 22°
2026-04-30 00:39 32.74833 109.07886 35264 ft 469 kts 22°
2026-04-30 00:40 32.80400 109.11920 35248 ft 468 kts 22°
2026-04-30 00:40 32.85957 109.15952 35247 ft 467 kts 22°
2026-04-30 00:41 32.91451 109.19948 35255 ft 465 kts 22°
2026-04-30 00:41 32.96980 109.23972 35277 ft 466 kts 23°
2026-04-30 00:42 33.02508 109.28004 35248 ft 466 kts 23°
2026-04-30 00:42 33.08017 109.32036 35245 ft 464 kts 23°
2026-04-30 00:43 33.13472 109.36037 35254 ft 463 kts 23°
2026-04-30 00:43 33.18948 109.40057 35287 ft 462 kts 23°
2026-04-30 00:44 33.24409 109.44071 35266 ft 460 kts 23°
2026-04-30 00:44 33.29852 109.48080 35262 ft 459 kts 23°
2026-04-30 00:45 33.35263 109.52064 35259 ft 461 kts 23°
2026-04-30 00:45 33.40173 109.57121 35260 ft 489 kts 49°
2026-04-30 00:45 33.41756 109.60804 35275 ft 508 kts 64°
2026-04-30 00:46 33.42497 109.64993 35271 ft 520 kts 77°
2026-04-30 00:46 33.43197 109.73647 35270 ft 524 kts 78°
2026-04-30 00:47 33.43925 109.82277 35281 ft 526 kts 77°
2026-04-30 00:47 33.44749 109.90991 35255 ft 528 kts 77°
2026-04-30 00:48 33.45599 109.99721 35260 ft 528 kts 77°
2026-04-30 00:48 33.46436 110.08447 35260 ft 527 kts 77°
2026-04-30 00:49 33.47256 110.17094 35263 ft 526 kts 77°
2026-04-30 00:49 33.48076 110.25793 35259 ft 524 kts 77°
2026-04-30 00:50 33.48885 110.34468 35269 ft 524 kts 77°
2026-04-30 00:50 33.49815 110.43098 35252 ft 514 kts 67°
2026-04-30 00:50 33.51132 110.46971 35283 ft 493 kts 50°
2026-04-30 00:51 33.53181 110.50168 35283 ft 479 kts 37°
2026-04-30 00:51 33.58393 110.54677 35272 ft 456 kts 17°
2026-04-30 00:52 33.64189 110.57861 35266 ft 461 kts 16°
2026-04-30 00:52 33.70022 110.61099 35267 ft 463 kts 17°
2026-04-30 00:53 33.75840 110.64407 35273 ft 459 kts 17°
2026-04-30 00:53 33.81507 110.67672 35258 ft 452 kts 17°
2026-04-30 00:54 33.87178 110.70937 35261 ft 452 kts 17°
2026-04-30 00:54 33.92851 110.74200 35265 ft 452 kts 17°
2026-04-30 00:55 33.98534 110.77474 35266 ft 454 kts 18°
2026-04-30 00:55 34.07052 110.82400 35265 ft 455 kts 18°
2026-04-30 00:56 34.12754 110.85703 35256 ft 454 kts 17°
2026-04-30 00:56 34.18437 110.89001 35271 ft 452 kts 18°
2026-04-30 00:57 34.24105 110.92289 35238 ft 451 kts 18°
2026-04-30 00:57 34.29720 110.95554 35236 ft 450 kts 18°
2026-04-30 00:58 34.35356 110.98837 35230 ft 449 kts 18°
2026-04-30 00:58 34.40850 111.02461 35253 ft 459 kts 29°
2026-04-30 00:59 34.45476 111.07998 35234 ft 479 kts 45°
2026-04-30 00:59 34.49062 111.14908 35279 ft 486 kts 51°
2026-04-30 01:00 34.52503 111.21929 35245 ft 488 kts 50°
2026-04-30 01:00 34.56009 111.28977 35236 ft 488 kts 50°
2026-04-30 01:01 34.59550 111.36009 35235 ft 488 kts 50°
2026-04-30 01:01 34.63094 111.43039 35226 ft 488 kts 50°
2026-04-30 01:02 34.66609 111.50030 35232 ft 488 kts 50°
2026-04-30 01:02 34.70138 111.57064 35218 ft 487 kts 50°
2026-04-30 01:03 34.73659 111.64101 35223 ft 487 kts 50°
2026-04-30 01:03 34.77173 111.71137 35236 ft 487 kts 50°
2026-04-30 01:04 34.80655 111.78125 35227 ft 486 kts 50°
2026-04-30 01:04 34.84153 111.85157 35227 ft 486 kts 51°
2026-04-30 01:05 34.87651 111.92200 35222 ft 486 kts 51°
2026-04-30 01:05 34.91176 111.99225 35221 ft 486 kts 50°
2026-04-30 01:06 34.94680 112.06183 35228 ft 486 kts 50°
2026-04-30 01:06 34.98215 112.13217 35257 ft 485 kts 51°
2026-04-30 01:07 35.01736 112.20253 35214 ft 486 kts 51°
2026-04-30 01:07 35.05253 112.27295 35220 ft 486 kts 51°
2026-04-30 01:08 35.08746 112.34306 35216 ft 487 kts 51°
2026-04-30 01:08 35.12264 112.41380 35226 ft 488 kts 51°
2026-04-30 01:09 35.15778 112.48462 35236 ft 487 kts 51°
2026-04-30 01:09 35.19290 112.55551 35211 ft 487 kts 52°
2026-04-30 01:10 35.22781 112.62568 35213 ft 486 kts 51°
2026-04-30 01:10 35.26325 112.69603 35219 ft 486 kts 51°
2026-04-30 01:11 35.29867 112.76650 35220 ft 486 kts 51°
2026-04-30 01:11 35.33398 112.83703 35207 ft 486 kts 52°
2026-04-30 01:12 35.36921 112.90763 35212 ft 485 kts 52°
2026-04-30 01:12 35.40415 112.97779 35203 ft 486 kts 52°
2026-04-30 01:13 35.43931 113.04848 35232 ft 485 kts 52°
2026-04-30 01:13 35.47441 113.11924 35231 ft 486 kts 52°
2026-04-30 01:14 35.50957 113.19025 35220 ft 487 kts 52°
2026-04-30 01:14 35.54337 113.26151 35191 ft 491 kts 62°
2026-04-30 01:15 35.55320 113.30249 34526 ft 516 kts 78°
2026-04-30 01:15 35.55236 113.34714 33648 ft 530 kts 97°
2026-04-30 01:15 35.54036 113.38966 32692 ft 529 kts 116°
2026-04-30 01:15 35.51838 113.42545 31825 ft 524 kts 135°
2026-04-30 01:16 35.48947 113.45224 30953 ft 523 kts 151°
2026-04-30 01:16 35.45592 113.46888 30263 ft 517 kts 163°
2026-04-30 01:16 35.42181 113.48219 29613 ft 512 kts 162°
2026-04-30 01:16 35.38874 113.49624 28998 ft 508 kts 160°
2026-04-30 01:17 35.35567 113.51101 28416 ft 503 kts 160°
2026-04-30 01:17 35.32304 113.52586 27851 ft 498 kts 160°
2026-04-30 01:17 35.29065 113.54063 27282 ft 494 kts 160°
2026-04-30 01:17 35.25853 113.55520 26724 ft 491 kts 160°
2026-04-30 01:18 35.22662 113.56957 26171 ft 487 kts 160°
2026-04-30 01:18 35.19493 113.58378 25625 ft 483 kts 160°
2026-04-30 01:18 35.16346 113.59786 25088 ft 480 kts 159°
2026-04-30 01:18 35.13264 113.61164 24567 ft 477 kts 159°
2026-04-30 01:19 35.10161 113.62551 24030 ft 474 kts 159°
2026-04-30 01:19 35.07074 113.63920 23459 ft 471 kts 160°
2026-04-30 01:19 35.04006 113.65256 22854 ft 468 kts 160°
2026-04-30 01:19 35.00941 113.66581 22314 ft 464 kts 160°
2026-04-30 01:20 34.97930 113.67886 21801 ft 459 kts 160°
2026-04-30 01:20 34.94915 113.69194 21279 ft 455 kts 160°
2026-04-30 01:20 34.91943 113.70445 20755 ft 446 kts 165°
2026-04-30 01:20 34.88902 113.70882 20268 ft 439 kts 185°
2026-04-30 01:21 34.85988 113.70138 19794 ft 431 kts 203°
2026-04-30 01:21 34.83318 113.68558 19299 ft 424 kts 216°
2026-04-30 01:21 34.81065 113.66322 18781 ft 415 kts 231°
2026-04-30 01:21 34.79182 113.63690 18279 ft 411 kts 233°
2026-04-30 01:22 34.77292 113.61086 17695 ft 410 kts 232°
2026-04-30 01:22 34.75374 113.58532 17189 ft 408 kts 231°
2026-04-30 01:22 34.73438 113.56034 16664 ft 402 kts 227°
2026-04-30 01:22 34.71157 113.54067 16178 ft 405 kts 206°
2026-04-30 01:23 34.68580 113.52915 15775 ft 397 kts 201°
2026-04-30 01:23 34.65997 113.51743 15299 ft 396 kts 204°
2026-04-30 01:23 34.63448 113.50496 14819 ft 395 kts 204°
2026-04-30 01:23 34.60910 113.49241 14347 ft 392 kts 204°
2026-04-30 01:24 34.58299 113.48441 13841 ft 390 kts 184°
2026-04-30 01:24 34.55622 113.48863 13345 ft 390 kts 161°
2026-04-30 01:24 34.53229 113.50365 12847 ft 388 kts 141°
2026-04-30 01:24 34.51301 113.52619 12351 ft 384 kts 126°
2026-04-30 01:25 34.49998 113.55392 11860 ft 374 kts 110°
2026-04-30 01:25 34.49072 113.58277 11413 ft 372 kts 108°
2026-04-30 01:25 34.48144 113.61198 11103 ft 368 kts 109°
2026-04-30 01:25 34.47206 113.64038 10918 ft 359 kts 110°
2026-04-30 01:26 34.46272 113.66802 10734 ft 351 kts 110°
2026-04-30 01:26 34.45351 113.69513 10546 ft 344 kts 110°
2026-04-30 01:26 34.44452 113.72167 10400 ft 336 kts 110°
2026-04-30 01:26 34.43573 113.74758 10250 ft 329 kts 110°
2026-04-30 01:27 34.42724 113.77241 10105 ft 310 kts 110°
2026-04-30 01:27 34.41926 113.79568 9948 ft 299 kts 110°
2026-04-30 01:27 34.41135 113.81878 9600 ft 293 kts 110°
2026-04-30 01:27 34.40368 113.84115 9314 ft 285 kts 110°
2026-04-30 01:28 34.39612 113.86316 9005 ft 280 kts 110°
2026-04-30 01:28 34.38872 113.88473 8701 ft 275 kts 110°
2026-04-30 01:28 34.38151 113.90585 8410 ft 268 kts 110°
2026-04-30 01:28 34.37448 113.92652 8121 ft 263 kts 110°
2026-04-30 01:29 34.36759 113.94672 7839 ft 256 kts 111°
2026-04-30 01:29 34.36097 113.96616 7569 ft 250 kts 111°
2026-04-30 01:29 34.35445 113.98536 7357 ft 241 kts 111°
2026-04-30 01:29 34.34805 114.00450 7286 ft 251 kts 110°
2026-04-30 01:30 34.34152 114.02400 7160 ft 248 kts 111°
2026-04-30 01:30 34.33519 114.04289 6993 ft 237 kts 110°
2026-04-30 01:30 34.33207 114.06196 6751 ft 233 kts 81°
2026-04-30 01:30 34.33784 114.07983 6521 ft 231 kts 50°
2026-04-30 01:31 34.34984 114.09233 6218 ft 227 kts 25°
2026-04-30 01:31 34.36381 114.10015 5932 ft 221 kts 20°
2026-04-30 01:31 34.37785 114.10720 5642 ft 216 kts 19°
2026-04-30 01:31 34.39148 114.11406 5384 ft 209 kts 19°
2026-04-30 01:32 34.40509 114.11854 5080 ft 198 kts 353°
2026-04-30 01:32 34.41782 114.11418 4900 ft 189 kts 329°
2026-04-30 01:32 34.42976 114.10712 4655 ft 191 kts 318°
2026-04-30 01:32 34.43632 114.09424 4422 ft 179 kts 278°
2026-04-30 01:33 34.43913 114.07939 4239 ft 185 kts 285°
2026-04-30 01:33 34.44348 114.06456 4036 ft 188 kts 289°
2026-04-30 01:33 34.44823 114.05007 3768 ft 185 kts 290°
2026-04-30 01:33 34.45303 114.03586 3547 ft 180 kts 291°
2026-04-30 01:34 34.45778 114.02195 3324 ft 178 kts 290°
2026-04-30 01:34 34.46247 114.00819 3080 ft 175 kts 290°
2026-04-30 01:34 34.46709 113.99463 2879 ft 171 kts 291°
2026-04-30 01:34 34.47149 113.98175 2621 ft 159 kts 289°
2026-04-30 01:35 34.47558 113.96973 2403 ft 151 kts 289°
2026-04-30 01:35 34.47959 113.95796 2244 ft 153 kts 288°
2026-04-30 01:35 34.48365 113.94601 2005 ft 154 kts 289°
2026-04-30 01:35 34.48772 113.93396 1841 ft 154 kts 288°
2026-04-30 01:36 34.49178 113.92228 1606 ft 151 kts 288°
2026-04-30 01:36 34.49578 113.91052 1431 ft 152 kts 288°
2026-04-30 01:36 34.49979 113.89851 1259 ft 155 kts 288°
2026-04-30 01:36 34.50404 113.88619 1017 ft 161 kts 289°
2026-04-30 01:37 34.50836 113.87350 821 ft 165 kts 289°
2026-04-30 01:37 34.51275 113.86053 601 ft 168 kts 292°
2026-04-30 01:37 34.51711 113.84769 507 ft 155 kts 292°
2026-04-30 01:37 34.52074 113.83704 504 ft 115 kts 293°
2026-04-30 01:38 34.52325 113.82980 509 ft 71 kts 292°
2026-04-30 01:38 34.52461 113.82585 508 ft 27 kts 291°
2026-04-30 01:38 34.52512 113.82457 508 ft 14 kts 315°
2026-04-30 01:38 34.52592 113.82456 509 ft 12 kts 19°
2026-04-30 01:39 34.52668 113.82491 510 ft 11 kts 22°
2026-04-30 01:39 34.52736 113.82525 510 ft 11 kts 22°
2026-04-30 01:39 34.52804 113.82558 510 ft 10 kts 19°
2026-04-30 01:39 34.52853 113.82512 510 ft 10 kts 296°
2026-04-30 01:40 34.52881 113.82433 510 ft 10 kts 292°
2026-04-30 01:40 34.52908 113.82359 510 ft 9 kts 299°
2026-04-30 01:40 34.52936 113.82339 510 ft 1 kts 353°
2026-04-30 01:40 34.52960 113.82344 510 ft 6 kts 13°
2026-04-30 01:41 34.52993 113.82359 510 ft 2 kts 22°
2026-04-30 01:41 34.53004 113.82364 510 ft 0 kts 23°